Regional Weather Roundup
Issued by NWS Cleveland, OH

Home | Current Version | Previous Version | Graphics & Text | Print | Product List | Glossary On
Versions: 1 2 3 4 5 6 7 8 9 10 11 12 13 14 15 16 17 18 19 20 21 22 23 24 25 26 27 28 29 30 31 32 33 34 35 36 37 38 39 40 41 42 43 44 45 46 47 48 49 50
000
ASUS41 KCLE 012310
RWRCLE
OHIO REGIONAL WEATHER ROUNDUP
NATIONAL WEATHER SERVICE WILMINGTON, OH
700 PM EDT TUE SEP 01 2015

NOTE: "FAIR" INDICATES FEW OR NO CLOUDS BELOW 12,000 FEET WITH NO
SIGNIFICANT WEATHER AND/OR OBSTRUCTIONS TO VISIBILITY.

OHZ001>008-015>018-024>027-034-035-043-044-020000-
   NORTHWEST OHIO

CITY           SKY/WX    TMP DP  RH WIND       PRES   REMARKS
DEFIANCE       MOSUNNY   85  68  56 VRB7      30.05R
FINDLAY        MOSUNNY   81  67  62 SW9       30.05S
TOLEDO EXPRESS SUNNY     84  69  60 S3        30.03F
TOLEDO EXEC    SUNNY     87  65  47 SW8       30.04S
LIMA           CLOUDY    80  68  66 S7        30.08S
$$

OHZ009>014-019>023-028>033-038-089-020000-
   NORTHEAST OHIO

CITY           SKY/WX    TMP DP  RH WIND       PRES   REMARKS
CLE-HOPKINS    LGT RAIN  75  67  76 SE6       30.09R
CLE-LAKEFRONT  MOSUNNY   82  67  60 CALM      30.06R
CUY CO. ARPT   MOSUNNY   82  68  61 NW7       30.08R
LORAIN-ELYRIA  MOSUNNY   84  68  58 CALM      30.08R
ASHTABULA      CLEAR     80  67  64 NW3       30.09R
AKRON-CANTON   PTSUNNY   84  65  52 W7        30.08R
WOOSTER        MOSUNNY   81  68  64 SW3       30.09R
MANSFIELD      PTSUNNY   83  67  58 CALM      30.10R
YOUNGSTOWN     MOCLDY    79  69  71 CALM      30.08R
$$

OHZ042-051>053-060>062-070>072-077>081-020000-
  SOUTHWEST OHIO

CITY           SKY/WX    TMP DP  RH WIND       PRES   REMARKS
CINC-COVINGTON MOSUNNY   85  65  51 W5        30.09S
CINC-LUNKEN    MOSUNNY   85  65  51 SW8       30.07S
HAMILTON       SUNNY     85  66  53 W5        30.09R
DAYTON         PTSUNNY   79  67  66 N6        30.11S
WRIGHT-PAT AFB TSTM      76  69  80 E13G18    30.11R
DAYTON GENERAL MOSUNNY   77  67  71 CALM      30.09F
WILMINGTON     MOSUNNY   82  65  56 SW7       30.09S
$$

OHZ036-037-039>041-045>050-054>059-063>069-073>076-082>088-020000-
  CENTRAL AND SOUTHEAST OHIO

CITY           SKY/WX    TMP DP  RH WIND       PRES   REMARKS
COLUMBUS       PTSUNNY   84  68  58 S9        30.07R
OSU AIRPORT    PTSUNNY   83  67  58 W9        30.08S
BOLTON FIELD   MOSUNNY   82  72  69 SW7       30.09R
RICKENBACK AFB PTSUNNY   79  69  70 S5        30.07S
NEWARK         PTSUNNY   82  68  62 S6        30.08R
MARION         PTSUNNY   82  66  58 W6        30.08S
LANCASTER      PTSUNNY   83  67  58 SW5       30.09R
ZANESVILLE     PTSUNNY   80  65  59 W5        30.08S
NEW PHILLY     MOSUNNY   84  66  54 CALM      30.08R
$$


USA.gov is the U.S. government's official web portal to all federal, state and local government web resources and services.